Montpelier, VT

7:20 AM EDT on June 26, 2017 (GMT -0400)
Knapp State

Weather History for KMPV - February, 2014

Change the Weather History Date:

Monday, February 10, 2014

  Actual Average Record
Temperature  
Mean Temperature 10 °F 19 °F  
Max Temperature 16 °F 29 °F 50 °F (1966)
Min Temperature 3 °F 8 °F -23 °F (1984)
Degree Days  
Heating Degree Days 55 46  
Month to date heating degree days 472 470  
Since 1 July heating degree days 5279 5115  
Cooling Degree Days 0 0  
Month to date cooling degree days 0  
Year to date cooling degree days 0  
Moisture  
Dew Point 7 °F    
Average Humidity 78    
Maximum Humidity 96    
Minimum Humidity 59    
Precipitation  
Precipitation 0.01 in 0.07 in 1.03 in (2005)
Month to date precipitation 0.54 0.76  
Year to date precipitation 2.37 3.21  
Sea Level Pressure  
Sea Level Pressure 30.05 in    
Wind  
Wind Speed 7 mph (NW)    
Max Wind Speed 18 mph    
Max Gust Speed 24 mph    
Visibility 6 miles    
Events Snow    
T = Trace of Precipitation, MM = Missing Value Source: NWS Daily Summary

Daily Weather History Graph

Daily Weather History Graph

Search for Another Location

Airport or City:

Trip Planner

Search our weather history database for the weather conditions in past years. The results will help you decide how hot, cold, wet, or windy it might be!

Date:

Astronomy

Feb. 10, 2014 Rise Set
Actual Time 6:56 AM EST 5:12 PM EST
Civil Twilight 6:26 AM EST 5:42 PM EST
Nautical Twilight 5:52 AM EST 6:16 PM EST
Astronomical Twilight 5:19 AM EST 6:50 PM EST
Moon 1:35 PM EST (2/10) 3:51 AM EST (2/10)
Length of Visible Light 11h 16m
Length of Day
10h 15m
Waxing Gibbous, 84% of the Moon is Illuminated
Feb 10
Waxing Gibbous
Feb 14
Full
Feb 22
Last Quarter
Mar 1
New
Mar 8
First Quarter

Hourly Weather History & Observations

Time (EST) Temp. Windchill Dew Point Humidity Pressure Visibility Wind Dir Wind Speed Gust Speed Precip Events Conditions
12:51 AM 15.1 °F - 12.9 °F 91% 29.97 in 2.0 mi Calm Calm - 0.01 in Snow Light Snow
1:07 AM 15.1 °F - 12.9 °F 91% 29.90 in 3.0 mi Calm Calm - 0.00 in Snow Light Snow
1:19 AM 14.0 °F - 12.9 °F 95% 29.90 in 2.5 mi Calm Calm - 0.00 in Snow Light Snow
1:30 AM 14.0 °F 8.2 °F 12.9 °F 95% 29.89 in 3.0 mi NW 3.5 mph - 0.00 in Snow Light Snow
1:39 AM 14.0 °F 8.2 °F 12.0 °F 92% 29.89 in 2.0 mi NW 3.5 mph - 0.00 in Snow Light Snow
1:51 AM 14.0 °F 8.2 °F 12.0 °F 92% 29.96 in 2.5 mi NNW 3.5 mph - 0.00 in Snow Light Snow
2:06 AM 14.0 °F 6.5 °F 12.0 °F 92% 29.89 in 3.0 mi NW 4.6 mph - 0.00 in Snow Light Snow
2:51 AM 14.0 °F 6.5 °F 10.9 °F 88% 29.96 in 3.0 mi NW 4.6 mph - 0.00 in Snow Light Snow
3:24 AM 12.9 °F 3.8 °F 10.9 °F 92% 29.90 in 4.0 mi NNW 5.8 mph - 0.00 in Snow Light Snow
3:51 AM 12.0 °F 4.1 °F 10.0 °F 92% 29.98 in 4.0 mi NW 4.6 mph - 0.00 in Snow Light Snow
4:17 AM 10.9 °F 0.2 °F 9.0 °F 92% 29.92 in 5.0 mi NW 6.9 mph - 0.00 in   Overcast
4:51 AM 12.9 °F 1.6 °F 10.0 °F 88% 30.00 in 4.0 mi WNW 8.1 mph - 0.00 in Snow Light Snow
5:38 AM 12.0 °F 0.5 °F 8.1 °F 84% 29.96 in 7.0 mi WNW 8.1 mph - 0.00 in   Overcast
5:51 AM 12.0 °F 4.1 °F 8.1 °F 84% 30.03 in 3.0 mi West 4.6 mph - 0.00 in Snow Light Snow
6:03 AM 10.9 °F -1.8 °F 8.1 °F 88% 29.96 in 3.0 mi West 9.2 mph - 0.00 in Snow Light Snow
6:28 AM 10.0 °F 1.8 °F 7.0 °F 87% 29.97 in 5.0 mi Variable 4.6 mph - 0.00 in   Overcast
6:51 AM 10.0 °F 0.4 °F 6.1 °F 84% 30.05 in 7.0 mi WNW 5.8 mph - 0.00 in   Scattered Clouds
7:51 AM 9.0 °F - 6.1 °F 88% 30.08 in 4.0 mi Calm Calm - N/A   Mostly Cloudy
8:10 AM 9.0 °F -2.2 °F 6.1 °F 88% 30.00 in 5.0 mi WNW 6.9 mph - N/A   Overcast
8:51 AM 10.9 °F -2.6 °F 6.1 °F 81% 30.09 in 7.0 mi NW 10.4 mph - N/A   Mostly Cloudy
8:59 AM 12.0 °F -2.0 °F 6.1 °F 77% 30.01 in 6.0 mi WNW 11.5 mph 19.6 mph N/A   Haze
9:17 AM 12.9 °F 1.6 °F 6.1 °F 74% 30.02 in 7.0 mi NW 8.1 mph 19.6 mph N/A   Mostly Cloudy
9:51 AM 12.9 °F -0.2 °F 6.1 °F 74% 30.10 in 7.0 mi NNW 10.4 mph - N/A   Overcast
10:47 AM 12.2 °F -1.8 °F 5.0 °F 73% 30.04 in 10.0 mi NW 11.5 mph 21.9 mph N/A   Mostly Cloudy
10:51 AM 14.0 °F -0.8 °F 5.0 °F 67% 30.12 in 10.0 mi WNW 13.8 mph - N/A   Mostly Cloudy
11:27 AM 14.0 °F -0.8 °F 5.0 °F 67% 30.04 in 10.0 mi WNW 13.8 mph - N/A   Overcast
11:51 AM 15.1 °F -0.6 °F 3.9 °F 61% 30.11 in 10.0 mi WNW 16.1 mph - N/A   Overcast
12:25 PM 15.1 °F 2.5 °F 7.0 °F 70% 30.03 in 2.5 mi NNW 10.4 mph - 0.00 in Snow Light Snow
12:30 PM 15.1 °F 4.2 °F 9.0 °F 77% 30.03 in 1.2 mi NNW 8.1 mph - 0.00 in Snow Light Snow
12:37 PM 15.1 °F 3.3 °F 8.1 °F 74% 30.03 in 2.0 mi North 9.2 mph - 0.00 in Snow Light Snow
12:42 PM 15.1 °F 2.5 °F 9.0 °F 77% 30.03 in 1.8 mi North 10.4 mph - 0.00 in Snow Light Snow
12:51 PM 14.0 °F -0.2 °F 8.1 °F 77% 30.10 in 2.5 mi North 12.7 mph - 0.00 in Snow Light Snow
12:58 PM 14.0 °F 1.2 °F 7.0 °F 74% 30.03 in 6.0 mi NNW 10.4 mph - 0.00 in   Haze
1:14 PM 15.1 °F 2.5 °F 6.1 °F 68% 30.02 in 5.0 mi NNW 10.4 mph - 0.00 in Snow Light Snow
1:51 PM 14.0 °F 2.9 °F 6.1 °F 71% 30.11 in 10.0 mi WNW 8.1 mph - 0.00 in   Mostly Cloudy
2:14 PM 15.1 °F 9.4 °F 6.1 °F 68% 30.03 in 2.5 mi Variable 3.5 mph - 0.00 in Snow Light Snow
2:19 PM 15.1 °F 3.3 °F 6.1 °F 68% 30.04 in 4.0 mi NW 9.2 mph - 0.00 in Snow Light Snow
2:27 PM 15.1 °F 2.5 °F 6.1 °F 68% 30.04 in 2.0 mi WNW 10.4 mph - 0.00 in Snow Light Snow
2:35 PM 15.1 °F 3.3 °F 6.1 °F 68% 30.04 in 8.0 mi WNW 9.2 mph - 0.00 in   Overcast
2:51 PM 15.1 °F 1.8 °F 5.0 °F 64% 30.12 in 9.0 mi West 11.5 mph 17.3 mph 0.00 in   Overcast
3:51 PM 15.1 °F 3.3 °F 7.0 °F 70% 30.13 in 4.0 mi NW 9.2 mph - 0.00 in Snow Light Snow
4:27 PM 15.1 °F 4.2 °F 7.0 °F 70% 30.06 in 2.5 mi NW 8.1 mph - 0.00 in Snow Light Snow
4:40 PM 14.0 °F 6.5 °F 6.1 °F 71% 30.06 in 6.0 mi NW 4.6 mph 17.3 mph 0.00 in   Haze
4:48 PM 12.2 °F 2.9 °F 5.0 °F 73% 30.07 in 10.0 mi NW 5.8 mph - 0.00 in   Scattered Clouds
4:51 PM 12.9 °F 5.2 °F 5.0 °F 71% 30.15 in 10.0 mi NW 4.6 mph - 0.00 in   Scattered Clouds
5:51 PM 12.0 °F 1.5 °F 5.0 °F 73% 30.17 in 10.0 mi WNW 6.9 mph - N/A   Mostly Cloudy
6:02 PM 12.0 °F 1.5 °F 5.0 °F 73% 30.10 in 10.0 mi WNW 6.9 mph - N/A   Scattered Clouds
6:11 PM 12.0 °F 1.5 °F 5.0 °F 73% 30.10 in 10.0 mi West 6.9 mph - N/A   Mostly Cloudy
6:51 PM 12.0 °F -1.3 °F 6.1 °F 77% 30.19 in 10.0 mi WNW 10.4 mph - N/A   Overcast
7:51 PM 10.0 °F -0.9 °F 6.1 °F 84% 30.21 in 8.0 mi NW 6.9 mph - N/A   Overcast
8:46 PM 8.6 °F 2.0 °F 5.0 °F 85% 30.13 in 10.0 mi West 3.5 mph - N/A   Partly Cloudy
8:51 PM 8.1 °F 1.4 °F 5.0 °F 87% 30.22 in 10.0 mi West 3.5 mph - N/A   Partly Cloudy
9:33 PM 6.1 °F -0.9 °F 3.9 °F 91% 30.14 in 10.0 mi West 3.5 mph - N/A   Mostly Cloudy
9:51 PM 6.1 °F - 3.0 °F 87% 30.22 in 7.0 mi Calm Calm - N/A   Overcast
10:25 PM 3.9 °F - 1.0 °F 88% 30.14 in 8.0 mi Calm Calm - N/A   Overcast
10:51 PM 3.0 °F -6.4 °F 1.0 °F 91% 30.24 in 4.0 mi South 4.6 mph - N/A   Overcast
11:27 PM 3.9 °F -3.4 °F 1.0 °F 88% 30.15 in 2.5 mi South 3.5 mph - 0.00 in Snow Light Snow
11:51 PM 5.0 °F - 1.9 °F 87% 30.24 in 2.5 mi Calm Calm - 0.00 in Snow Light Snow